STARLINK-1707, 46359

Orbit data source: Space-Track

STARLINK-1707, 46359 is a payload satellite owned by SpaceX/Seattle (US) in LEO that was launched on Thu, 03 Sep 2020 UTC via an FALCON 9 launch vehicle from the Air Force Eastern Test Range (AFETR). Payloads include a variety of satellites, spacecraft, and rockets equipped with specific instruments for various scientific and technological missions. These include communications satellites like Starlink; space stations such as the ISS; scientific satellites like the Hubble; Earth observation satellites from companies like Planet Labs, Umbra, and HawkEye 360; GPS; miniature CubeSats for education and research; and military/defense satellites.

Loading next visibility...
STARLINK-1707 details
Identifier
46359, 2020-062AL
Orbit
LEO
Last TLE update19 hours ago
Origin
Flag of USSpaceX/Seattle (US)
ManufacturerSpaceX/Seattle
MissionOperational Commercial Communications
Bus & MotorSTARLINK, Unknown motor
Mass260 kg wet, ~248 kg dry
Launch date (UTC)
2020-09-03 (4 years ago)
Launch vehicle
FALCON 9
Launch site
Air Force Eastern Test Range (AFETR)
Object type
Payload
Rocket body
Debris
Shape & HBRBox + 1 Pan, 8.86 m
Radar Cross Section13.562 m², Large (>1 m²)

Expand to show TLE details & history

TLE from 19 hours ago
0 STARLINK-1707
1 46359U 20062AL  24360.65752473 -.00002602  00000-0 -15596-3 0  9992
2 46359  53.0529 142.5080 0001383  84.0153 276.0993 15.06376522238948
Epoch: 2024-12-25T15:46Z
Definitive object data (Epoch: 2024-12-25T15:46:50.136Z)
Latitude-0.00008°
Longitude171.15092°
Altitude548.061 km
Speed7.589 km/s
True Right ascension09h 30m 01s
True Declination0° 00' 00"
Sunlit
Object was in full shadow at TLE epoch
Visualization TLE readout
Latitude-49.70704°
Longitude105.72345°
Altitude565.32 km
Speed7.578 km/s
Apparent Right ascension01h 18m 21s
Apparent Declination-59° 26' 29"
Sunlit
Object is in daylight
Visualization observer readout
Local Sidereal Time09:55:20
Azimuth220.93° SW
Elevation-53.06°
Doppler factor1
Orbital elements
Apogee altitude548.512 km
Perigee altitude546.597 km
Semi-major axis6,925.691 km
Eccentricity0.0001383
Inclination53.0529°
RAAN142.508°
Arg. of periapsis84.0153°
True anomaly276.08354°
Mean anomaly276.0993°
Eccentric anomaly276.09142°
Mean motion3.76572 °/min
BSTAR-0.00015596
Orbital period95.6 mins
Loading maneuver chart data...
Loading historical data...
Loading historical data...
Loading historical data...
Loading historical data...
Loading historical data...
Loading historical data...
Loading historical data...

STARLINK-1707 Visibility forecast

Observer location: undefined°, undefined

Span
Click to sort rows by Start time (UTC) header in descending order
Start Az.
Max El. time (UTC)
Max El. Az.
Max El.
End time (UTC)
End Az.
4 mins2024-12-26 11:02:08.512Z163.248° S2024-12-26 11:04:08.512Z132.907° SE15.537°2024-12-26 11:06:08.512Z99.032° ESE
6 mins2024-12-26 12:41:08.512Z243.014° WSW2024-12-26 12:43:08.512Z279.178° WNW41.313°2024-12-26 12:47:08.512Z45.085° ENE
4 mins2024-12-26 14:22:08.512Z312.674° NW2024-12-26 14:24:08.512Z349.462° N17.421°2024-12-26 14:26:08.512Z21.433° NNE
5 mins2024-12-26 17:43:08.512Z341.788° N2024-12-26 17:45:08.512Z20.539° NNE22.266°2024-12-26 17:48:08.512Z75.182° E
7 mins2024-12-26 19:22:08.512Z303.353° NW2024-12-26 19:25:08.512Z222.905° SW43.063°2024-12-26 19:29:08.512Z139.852° SSE
|